[[{"header":{"parameterUnit":"m.s-1","parameterCategory":1,"la1":30.2992,"la2":30.254,"lo1":-89.0895,"lo2":-89.0443,"dy":0.0025,"dx":0.0025,"nx":19,"ny":19,"refTime":"2026-04-15T03:00:00:Z","depth":0,"parameterNumber":2,"parameterNumberName":"U-component_of_WINDS"},"data":[0,0,0,-1.7616,-1.7618,-1.7692,-1.7692,-1.7789,-1.779,0,0,0,0,0,0,0,0,0,0,0,-1.7595,-1.7596,-1.7616,-1.7618,-1.7692,-1.7692,-1.7789,-1.779,0,0,0,0,0,0,0,0,0,0,0,-1.7595,-1.7595,-1.7596,-1.7618,-1.7692,-1.7692,-1.7788,-1.7732,0,0,0,0,0,0,0,0,0,0,-1.766,-1.7641,-1.7595,-1.7596,-1.7619,-1.7691,-1.7692,-1.7729,-1.7736,-1.7756,0,-1.7774,0,-1.7783,-1.7796,-1.7797,0,0,0,-1.7617,-1.7636,-1.7655,-1.7596,-1.7619,-1.7691,-1.7658,-1.7733,-1.774,-1.7765,-1.7776,-1.7779,-1.7785,-1.7797,-1.7797,-1.7917,-1.7918,0,0,-1.7613,-1.7609,-1.765,-1.766,-1.7647,-1.7656,-1.766,-1.7737,-1.7749,-1.7776,-1.7781,-1.7787,-1.7798,-1.7798,-1.7916,-1.7917,0,0,0,-1.7602,-1.7606,-1.7623,-1.7656,-1.7669,-1.7658,-1.7663,-1.7745,-1.7751,-1.7782,-1.7788,-1.7798,-1.7799,-1.7916,-1.7917,-1.7941,0,0,0,-1.7599,-1.7599,-1.7621,-1.7619,-1.7667,-1.7708,-1.767,-1.7746,-1.7755,-1.7787,-1.7798,-1.78,-1.7915,-1.7916,-1.7939,-1.7953,0,0,0,-1.759,-1.7598,-1.7609,-1.7619,-1.765,-1.7707,-1.7717,-1.7748,-1.7758,-1.7797,-1.7801,-1.7915,-1.7916,-1.7937,-1.795,-1.7983,0,0,0,-1.7578,-1.7629,-1.7609,-1.7668,-1.765,-1.7721,-1.7717,-1.777,-1.7806,-1.7799,-1.7915,-1.7917,-1.7936,-1.7948,-1.7981,-1.8011,-1.8022,0,0,-1.764,-1.7636,-1.7671,-1.7656,-1.7729,-1.771,-1.7787,-1.7824,-1.7833,-1.7889,-1.7892,-1.7939,-1.795,-1.7983,-1.8089,-1.8098,0,0,0,-1.7689,-1.7714,-1.7735,-1.7769,-1.7798,-1.7825,-1.7851,-1.7865,-1.7913,-1.786,-1.7961,-1.7967,-1.7987,-1.8001,-1.8009,-1.8026,-1.7923,-1.7923,-1.7923,-1.7769,-1.7777,-1.7836,-1.7853,-1.7885,-1.7912,-1.794,-1.7963,-1.7961,-1.7985,-1.8002,-1.8065,-1.8082,-1.8088,-1.8106,-1.8018,-1.8018,-1.8018,-1.8018,-1.786,-1.7897,-1.7894,-1.7949,-1.7958,-1.8005,-1.8033,-1.803,-1.8076,-1.8053,-1.8071,-1.8045,-1.8097,-1.8114,-1.802,-1.802,-1.8019,-1.8019,-1.8019,-1.7914,-1.7933,-1.7949,-1.7999,-1.8037,-1.8052,-1.8097,-1.8103,-1.8109,-1.8126,-1.8145,-1.8145,-1.8145,-1.8135,-1.8135,-1.8135,-1.8135,-1.8135,-1.8136,-1.7963,-1.798,-1.8016,-1.8052,-1.8075,-1.8106,-1.8134,-1.8157,-1.8184,-1.8185,-1.8186,-1.8182,-1.8101,-1.8081,-1.8139,-1.8138,-1.8138,-1.8138,-1.8137,-1.8052,-1.8033,-1.8089,-1.8112,-1.8155,-1.8193,-1.82,-1.8247,-1.8267,-1.8289,-1.8282,-1.8221,-1.8218,-1.8211,-1.8195,-1.8279,-1.8279,-1.8279,-1.8279,-1.8098,-1.8097,-1.8155,-1.8192,-1.8228,-1.824,-1.8305,-1.8327,-1.8348,-1.8361,-1.835,-1.8328,-1.8322,-1.8323,-1.8314,-1.8298,-1.8408,-1.8408,-1.8408,-1.8154,-1.8156,-1.8209,-1.8228,-1.8263,-1.8293,-1.8354,-1.8397,-1.8416,-1.8413,-1.8372,-1.8366,-1.8331,-1.832,-1.8315,-1.8302,-1.8273,0,0]},{"header":{"parameterUnit":"m.s-1","parameterCategory":1,"la1":30.2992,"la2":30.254,"lo1":-89.0895,"lo2":-89.0443,"dy":0.0025,"dx":0.0025,"nx":19,"ny":19,"refTime":"2026-04-15T03:00:00:Z","depth":0,"parameterNumber":3,"parameterNumberName":"V-component_of_WINDS"},"data":[0,0,0,3.5734,3.5735,3.5798,3.5798,3.5883,3.5884,0,0,0,0,0,0,0,0,0,0,0,3.5721,3.5722,3.5734,3.5736,3.5798,3.5798,3.5883,3.5884,0,0,0,0,0,0,0,0,0,0,0,3.5721,3.5722,3.5723,3.5736,3.5798,3.5798,3.5883,3.5833,0,0,0,0,0,0,0,0,0,0,3.5772,3.5766,3.5721,3.5723,3.5736,3.5798,3.5798,3.5831,3.5837,3.5858,0,3.5881,0,3.5884,3.5891,3.5891,0,0,0,3.5731,3.5761,3.5773,3.5723,3.5737,3.5798,3.5768,3.5834,3.584,3.5866,3.5882,3.5885,3.5886,3.5891,3.5892,3.6037,3.6038,0,0,3.5727,3.5735,3.5769,3.5778,3.5771,3.5767,3.577,3.5838,3.5855,3.5882,3.5887,3.5887,3.5892,3.5892,3.6036,3.6037,0,0,0,3.5721,3.5732,3.5743,3.5774,3.5785,3.5768,3.5773,3.5852,3.5855,3.5888,3.5888,3.5892,3.5893,3.6035,3.6036,3.6089,0,0,0,3.5718,3.5728,3.5741,3.5746,3.5784,3.582,3.5786,3.585,3.5858,3.5888,3.5892,3.5894,3.6034,3.6036,3.6085,3.6112,0,0,0,3.5715,3.5728,3.5739,3.5747,3.5774,3.5819,3.5825,3.5852,3.5858,3.5891,3.5895,3.6033,3.6035,3.6082,3.6107,3.6153,0,0,0,3.5713,3.5784,3.574,3.5819,3.5774,3.5851,3.5825,3.5882,3.5916,3.5893,3.6034,3.6036,3.6081,3.6104,3.615,3.6194,3.6212,0,0,3.5806,3.5795,3.5841,3.5804,3.5892,3.5841,3.5936,3.5959,3.5954,3.6009,3.6012,3.6086,3.6107,3.6152,3.6316,3.6331,0,0,0,3.5873,3.5907,3.5928,3.5963,3.5983,3.6003,3.6012,3.602,3.6067,3.5985,3.6115,3.6127,3.6153,3.6174,3.6187,3.6209,3.6046,3.6046,3.6046,3.6016,3.6008,3.6083,3.6083,3.6116,3.6124,3.615,3.6163,3.6143,3.6174,3.619,3.6291,3.6315,3.6325,3.6348,3.6213,3.6213,3.6213,3.6213,3.6152,3.6198,3.6172,3.6236,3.6226,3.6279,3.6289,3.6274,3.6321,3.6278,3.63,3.6255,3.6342,3.6362,3.6217,3.6216,3.6216,3.6215,3.6215,3.6245,3.6266,3.6276,3.6325,3.6363,3.6358,3.6405,3.6394,3.6383,3.6406,3.6422,3.6421,3.6418,3.6414,3.6414,3.6415,3.6415,3.6415,3.6416,3.6337,3.6348,3.6389,3.6418,3.6438,3.6464,3.6473,3.6492,3.651,3.6497,3.6497,3.6475,3.6352,3.6322,3.6421,3.642,3.6419,3.6419,3.6418,3.648,3.6446,3.6511,3.6531,3.6563,3.6602,3.6587,3.6627,3.664,3.6663,3.6636,3.6547,3.6534,3.6524,3.6499,3.6638,3.6638,3.6638,3.6638,3.6558,3.6551,3.6615,3.6649,3.668,3.6673,3.6745,3.6752,3.6754,3.6761,3.6739,3.6705,3.6695,3.6688,3.6674,3.665,3.6825,3.6825,3.6825,3.6645,3.6641,3.6705,3.6708,3.6732,3.6753,3.682,3.6858,3.6852,3.6832,3.6767,3.6759,3.6703,3.6685,3.6664,3.6643,3.6599,0,0]}]]